Regional Weather Roundup
Issued by NWS

Home | Current Version | Previous Version | Graphics & Text | Print | Product List | Glossary On
Versions: 1 2 3 4 5 6 7 8 9 10 11 12 13 14 15 16 17 18 19 20 21 22 23 24 25 26 27 28 29 30 31 32 33 34 35 36 37 38 39 40 41 42 43 44 45 46 47 48 49 50
000
ASUS45 KPSR 201000
RWRAZ

PRELIMINARY ARIZONA REGIONAL HOURLY WEATHER ROUNDUP
NATIONAL WEATHER SERVICE PHOENIX AZ
300 AM MST SUN APR 20 2014

NOTE: FAIR INDICATES FEW OR NO CLOUDS BELOW 12,000 FEET WITH NO
SIGNIFICANT WEATHER AND/OR OBSTRUCTIONS TO VISIBILITY.

AZZ001>003-036-201100-
NORTHWEST ARIZONA

CITY           SKY/WX    TMP DP  RH WIND       PRES   REMARKS
KINGMAN        FAIR      59  38  45 SE8       30.06R
$$

AZZ004>008-015-016-018-201100-
NORTH CENTRAL ARIZONA

CITY           SKY/WX    TMP DP  RH WIND       PRES   REMARKS
GRAND CANYON   FAIR      30  29  96 CALM      30.20R
WILLIAMS       FAIR      36  32  87 SE7       30.27S WCI  30
PRESCOTT       FAIR      47  36  65 S7        30.14S
FLAGSTAFF      FAIR      33  29  85 CALM      30.21S
PAYSON         FAIR      50  39  66 NE5       30.17R
PAGE           FAIR      54  35  48 SE3       30.07S
$$

AZZ009>014-017-201100-
NORTHEAST ARIZONA

CITY           SKY/WX    TMP DP  RH WIND       PRES   REMARKS
WINSLOW        NOT AVBL
SAINT JOHNS    FAIR      42  35  76 SE5       30.15R
WINDOW ROCK    FAIR      38  34  85 SW3       30.18S
SHOW LOW       FAIR      39  32  75 S8        30.20S WCI  34
$$

AZZ023-201100-
GREATER PHOENIX AREA

CITY           SKY/WX    TMP DP  RH WIND       PRES   REMARKS
PHOENIX        FAIR      70  43  37 E5        29.97R
LUKE AFB       NOT AVBL
DEER VALLEY    FAIR      67  41  38 E3        29.98R
SCOTTSDALE     FAIR      68  42  38 CALM      30.00S
$$

AZZ027-028-201100-
SOUTHWEST MARICOPA COUNTY AND PINAL COUNTY

CITY           SKY/WX    TMP DP  RH WIND       PRES   REMARKS
CASA GRANDE    FAIR      59  28  31 CALM      30.01R
$$

AZZ503-504-507>509-201100-
SOUTHEAST ARIZONA

CITY           SKY/WX    TMP DP  RH WIND       PRES   REMARKS
TUCSON         FAIR      59  43  55 SE7       30.07S
DAVIS-MONTHAN  FAIR      56  41  56 S8        30.06R
NOGALES        FAIR      48  38  68 E6        30.10R
SIERRA VISTA   FAIR      50  39  66 MISG      30.13S
SAFFORD        FAIR      50  37  61 CALM      30.07S
$$

AZZ020-021-025-026-031-201100-
SOUTHWEST ARIZONA

CITY           SKY/WX    TMP DP  RH WIND       PRES   REMARKS
YUMA           FAIR      69  42  37 SE10      29.93S
$$

CAZ031-033-041-043-047-048-061-201100-
SOUTHERN CALIFORNIA

CITY           SKY/WX    TMP DP  RH WIND       PRES   REMARKS
DOWNTOWN L.A.  FAIR      59  54  83 CALM      30.03F
L.A. AIRPORT   FAIR      58  53  84 E3        30.04S
SAN DIEGO      FAIR      62  55  77 CALM      30.05F
BURBANK        FAIR      59  51  75 CALM      30.03F
ONTARIO        FAIR      58  52  80 W3        30.03F
RIVERSIDE      FAIR      58  51  78 CALM      30.04S
PALM SPRINGS   FAIR      72  49  44 CALM      29.95S
EL CENTRO NAS  FAIR      68  47  46 NW5       29.91S
IMPERIAL       FAIR      68  49  50 N3        29.91S
BLYTHE         FAIR      73  39  29 S9        29.93R
$$

NVZ020-UTZ003-201100-
SOUTHERN NEVADA-UTAH

CITY           SKY/WX    TMP DP  RH WIND       PRES   REMARKS
LAS VEGAS      NOT AVBL
SALT LAKE CITY MOCLDY    55  37  50 SE9       30.01R
$$

NMZ009-TXZ055-201100-
NEW MEXICO-WEST TEXAS

CITY           SKY/WX    TMP DP  RH WIND       PRES   REMARKS
ALBUQUERQUE    MOCLDY    48  45  89 SE3       30.12S
EL PASO        FAIR      55  49  80 N5        30.09S
$$


........................KEY........................
SKY/WX - SKY CONDITION/WEATHER
TMP    - TEMPERATURE IN FAHRENHEIT
DP     - DEW POINT IN FAHRENHEIT
RH     - RELATIVE HUMIDITY IN PERCENT
WIND   - DIRECTION AND SPEED IN MILES PER HOUR (MPH)
VRB    - VARIABLE WIND DIRECTION
PRES   - MEAN SEA LEVEL PRESSURE IN INCHES OF MERCURY
         F - FALLING PRESSURE   R - RISING PRESSURE
         S - STEADY PRESSURE
VSB    - VISIBILITY IN MILES
HX     - HEAT INDEX IN FAHRENHEIT
WCI    - WIND CHILL INDEX IN FAHRENHEIT
TC     - TEMPERATURE IN CELSIUS WHICH IS ALSO KNOWN AS
         TEMPERATURE IN CENTIGRADE
AFB    - AIR FORCE BASE
         LUKE AFB IS LUKE AIR FORCE BASE
         DAVIS-MONTHAN IS DAVIS-MONTHAN AIR FORCE BASE
NAS    - NAVAL AIR STATION
         EL CENTRO NAS IS EL CENTRO NAVAL AIR STATION
N/A    - NOT AVAILABLE



USA.gov is the U.S. government's official web portal to all federal, state and local government web resources and services.